Tracking 18852 objects as of 23-Nov-2017
HD Live streaming from Space Station
objects crossing your sky now

FENGYUN 1C DEB

Track FENGYUN 1C DEB now!
10-day predictions


NORAD ID: 36218
Int'l Code: 1999-025DUT
Perigee: 665.5 km
Apogee: 818.5 km
Inclination: 99.0 °
Period: 99.5 minutes
Semi major axis: 7113 km
RCS: 0.0014 m2 (small)
Launch date: May 10, 1999
Source: People's Republic of China (PRC)
Launch site: Taiyaun Space Center, China (TSC)

Note: This is SATELLITE DEBRIS
aabbcc
Your satellite tracking list
Your tracking list is empty




NASA's NSSDC Master Catalog

Two Line Element Set (TLE):
1 36218U 99025DUT 17326.58280088 +.00000656 +00000-0 +18091-3 0  9992
2 36218 099.0302 250.4561 0107537 135.7314 225.2541 14.47179537164353
Source of the keplerian elements: AFSPC